| time (UTC) | temp F | wind direction | speed MPH | gust MPH | rain 1hr in | rain 24hr in | rain mn in | humidity % | barometer mb |
| 20260510153023 | 56 | 298 | 3.0 | 8.0 | 0.00 | 0.07 | 0.01 | 56 | 1020.1 |
| 20260510151524 | 55 | 283 | 4.0 | 12.0 | 0.00 | 0.07 | 0.01 | 63 | 1020.1 |
| 20260510150010 | 54 | 283 | 6.0 | 11.0 | 0.00 | 0.07 | 0.01 | 66 | 1020.1 |
| 20260510144503 | 52 | 250 | 6.0 | 11.0 | 0.00 | 0.07 | 0.01 | 69 | 1020.2 |
| 20260510143058 | 52 | 240 | 8.0 | 14.0 | 0.00 | 0.07 | 0.01 | 72 | 1020.3 |
| 20260510141552 | 51 | 219 | 7.0 | 13.0 | 0.00 | 0.07 | 0.01 | 73 | 1020.3 |
| 20260510140044 | 50 | 206 | 9.0 | 13.0 | 0.00 | 0.07 | 0.01 | 75 | 1020.2 |
| 20260510134539 | 49 | 212 | 7.0 | 12.0 | 0.00 | 0.07 | 0.01 | 81 | 1020.3 |
| 20260510133030 | 48 | 220 | 8.0 | 12.0 | 0.00 | 0.07 | 0.01 | 83 | 1020.3 |
| 20260510131521 | 46 | 225 | 6.0 | 11.0 | 0.00 | 0.07 | 0.01 | 86 | 1020.4 |
| 20260510130045 | 44 | 185 | 5.0 | 10.0 | 0.00 | 0.07 | 0.01 | 88 | 1020.3 |
| 20260510124538 | 41 | 207 | 4.0 | 6.0 | 0.00 | 0.07 | 0.01 | 92 | 1020.2 |
| 20260510123035 | 38 | 182 | 4.0 | 7.0 | 0.00 | 0.07 | 0.01 | 91 | 1020.1 |
| 20260510121533 | 36 | 182 | 5.0 | 7.0 | 0.00 | 0.07 | 0.01 | 90 | 1020.0 |
| 20260510120029 | 36 | 231 | 0.0 | 2.0 | 0.00 | 0.07 | 0.01 | 87 | 1019.9 |
| 20260510114536 | 37 | 156 | 2.0 | 3.0 | 0.00 | 0.07 | 0.01 | 83 | 1019.7 |
| 20260510113025 | 42 | 259 | 4.0 | 8.0 | 0.00 | 0.07 | 0.01 | 85 | 1019.6 |
| 20260510111513 | 42 | 212 | 6.0 | 10.0 | 0.00 | 0.07 | 0.01 | 87 | 1019.3 |
| 20260510110009 | 41 | 252 | 5.0 | 9.0 | 0.00 | 0.07 | 0.01 | 90 | 1019.2 |
| 20260510104506 | 37 | 193 | 1.0 | 3.0 | 0.00 | 0.07 | 0.01 | 89 | 1019.0 |
| 20260510103003 | 40 | 186 | 2.0 | 3.0 | 0.00 | 0.07 | 0.01 | 91 | 1018.9 |
| 20260510101505 | 38 | 190 | 2.0 | 4.0 | 0.00 | 0.07 | 0.01 | 92 | 1018.9 |
| 20260510100002 | 37 | 245 | 1.0 | 3.0 | 0.01 | 0.07 | 0.01 | 90 | 1018.9 |
| 20260510094503 | 38 | 178 | 1.0 | 4.0 | 0.01 | 0.07 | 0.01 | 90 | 1019.0 |
| 20260510093029 | 39 | 178 | 2.0 | 3.0 | 0.01 | 0.07 | 0.01 | 89 | 1018.8 |
| 20260510091526 | 40 | 229 | 2.0 | 4.0 | 0.01 | 0.07 | 0.01 | 92 | 1018.7 |
| 20260510090015 | 37 | 135 | 2.0 | 4.0 | 0.00 | 0.06 | 0.00 | 89 | 1018.3 |
| 20260510084513 | 40 | 102 | 1.0 | 5.0 | 0.00 | 0.06 | 0.00 | 88 | 1018.2 |
| 20260510083016 | 41 | 257 | 4.0 | 9.0 | 0.00 | 0.06 | 0.00 | 90 | 1018.1 |
| 20260510081510 | 41 | 264 | 5.0 | 8.0 | 0.00 | 0.06 | 0.00 | 92 | 1018.2 |
| 20260510080009 | 37 | 258 | 1.0 | 5.0 | 0.00 | 0.06 | 0.00 | 92 | 1018.1 |
| 20260510074509 | 38 | 135 | 1.0 | 4.0 | 0.00 | 0.06 | 0.00 | 91 | 1018.3 |
| 20260510073009 | 38 | 178 | 1.0 | 4.0 | 0.00 | 0.06 | 0.00 | 92 | 1018.1 |
| 20260510071507 | 38 | 295 | 1.0 | 4.0 | 0.00 | 0.06 | 0.00 | 90 | 1018.2 |
| 20260510070006 | 40 | 253 | 3.0 | 8.0 | 0.00 | 0.06 | 0.00 | 92 | 1018.2 |
| 20260510064502 | 40 | 255 | 5.0 | 7.0 | 0.00 | 0.06 | 0.00 | 93 | 1018.4 |
| 20260510063102 | 38 | 223 | 1.0 | 2.0 | 0.00 | 0.06 | 0.00 | 93 | 1018.5 |
| 20260510061556 | 38 | 124 | 1.0 | 5.0 | 0.00 | 0.06 | 0.00 | 91 | 1018.2 |
| 20260510060104 | 37 | 72 | 1.0 | 4.0 | 0.00 | 0.06 | 0.00 | 92 | 1018.0 |
| 20260510054600 | 36 | 108 | 1.0 | 4.0 | 0.00 | 0.06 | 0.00 | 90 | 1017.8 |
| 20260510053048 | 36 | 213 | 1.0 | 3.0 | 0.00 | 0.06 | 0.06 | 90 | 1017.7 |
| 20260510051545 | 39 | 197 | 0.0 | 2.0 | 0.00 | 0.06 | 0.06 | 89 | 1017.6 |
| 20260510050014 | 39 | 178 | 1.0 | 2.0 | 0.00 | 0.06 | 0.06 | 89 | 1017.5 |
| 20260510044513 | 40 | 260 | 2.0 | 4.0 | 0.00 | 0.06 | 0.06 | 91 | 1017.4 |
| 20260510043008 | 40 | 178 | 0.0 | 3.0 | 0.00 | 0.06 | 0.06 | 89 | 1017.3 |
| 20260510041506 | 41 | 250 | 0.0 | 3.0 | 0.00 | 0.06 | 0.06 | 89 | 1017.3 |
| 20260510040100 | 42 | 314 | 1.0 | 3.0 | 0.00 | 0.06 | 0.06 | 89 | 1017.3 |
| 20260510034559 | 42 | 269 | 0.0 | 2.0 | 0.00 | 0.06 | 0.06 | 89 | 1017.2 |
| 20260510033120 | 42 | 117 | 0.0 | 1.0 | 0.00 | 0.06 | 0.06 | 89 | 1016.9 |
| 20260510031610 | 42 | 286 | 1.0 | 3.0 | 0.00 | 0.06 | 0.06 | 88 | 1016.6 |
| 20260510030050 | 42 | 108 | 1.0 | 3.0 | 0.00 | 0.06 | 0.06 | 86 | 1016.3 |
| 20260510024546 | 44 | 46 | 0.0 | 2.0 | 0.00 | 0.06 | 0.06 | 86 | 1016.0 |
| 20260510023044 | 45 | 269 | 1.0 | 3.0 | 0.01 | 0.06 | 0.06 | 85 | 1015.6 |
| 20260510021542 | 46 | 276 | 2.0 | 4.0 | 0.01 | 0.06 | 0.06 | 84 | 1015.4 |
| 20260510020039 | 47 | 349 | 1.0 | 3.0 | 0.01 | 0.06 | 0.06 | 83 | 1015.2 |
| 20260510014536 | 47 | 34 | 2.0 | 10.0 | 0.01 | 0.06 | 0.06 | 82 | 1014.8 |
| 20260510013040 | 47 | 348 | 7.0 | 13.0 | 0.00 | 0.05 | 0.05 | 82 | 1014.6 |
| 20260510011503 | 48 | 339 | 7.0 | 17.0 | 0.00 | 0.05 | 0.05 | 79 | 1014.4 |
| 20260510010002 | 49 | 9 | 7.0 | 16.0 | 0.00 | 0.05 | 0.05 | 79 | 1014.4 |
| 20260510004531 | 49 | 317 | 7.0 | 16.0 | 0.00 | 0.05 | 0.05 | 80 | 1014.3 |
| 20260510003037 | 50 | 340 | 10.0 | 18.0 | 0.00 | 0.05 | 0.05 | 76 | 1014.2 |
| 20260510001536 | 51 | 349 | 10.0 | 17.0 | 0.00 | 0.05 | 0.05 | 73 | 1013.8 |
| 20260510000024 | 50 | 1 | 5.0 | 10.0 | 0.01 | 0.05 | 0.05 | 73 | 1013.6 |
| 20260509234521 | 50 | 54 | 7.0 | 16.0 | 0.02 | 0.05 | 0.05 | 72 | 1013.3 |
| 20260509233020 | 54 | 356 | 8.0 | 16.0 | 0.02 | 0.05 | 0.05 | 67 | 1012.9 |
| 20260509231548 | 52 | 335 | 8.0 | 14.0 | 0.03 | 0.05 | 0.05 | 74 | 1012.5 |
| 20260509230048 | 51 | 311 | 10.0 | 14.0 | 0.03 | 0.04 | 0.04 | 77 | 1012.6 |
| 20260509224517 | 50 | 310 | 6.0 | 10.0 | 0.02 | 0.03 | 0.03 | 79 | 1012.3 |
| 20260509223017 | 48 | 264 | 7.0 | 11.0 | 0.02 | 0.03 | 0.03 | 85 | 1012.3 |
| 20260509221514 | 46 | 258 | 8.0 | 13.0 | 0.02 | 0.02 | 0.02 | 88 | 1012.6 |
| 20260509220013 | 46 | 257 | 7.0 | 15.0 | 0.01 | 0.01 | 0.01 | 90 | 1012.4 |
| 20260509214520 | 44 | 230 | 14.0 | 21.0 | 0.01 | 0.01 | 0.01 | 90 | 1012.4 |
| 20260509213011 | 43 | 290 | 19.0 | 26.0 | 0.01 | 0.01 | 0.01 | 87 | 1012.8 |
| 20260509211504 | 50 | 295 | 12.0 | 19.0 | 0.00 | 0.00 | 0.00 | 80 | 1012.6 |
| 20260509210002 | 51 | 307 | 7.0 | 13.0 | 0.00 | 0.00 | 0.00 | 73 | 1012.1 |
| 20260509204605 | 51 | 348 | 7.0 | 12.0 | 0.00 | 0.00 | 0.00 | 70 | 1011.8 |
| 20260509203100 | 50 | 356 | 8.0 | 18.0 | 0.00 | 0.00 | 0.00 | 71 | 1011.7 |
| 20260509201556 | 51 | 14 | 13.0 | 18.0 | 0.00 | 0.00 | 0.00 | 71 | 1011.7 |
| 20260509200054 | 51 | 339 | 9.0 | 18.0 | 0.00 | 0.00 | 0.00 | 74 | 1011.5 |
| 20260509194555 | 52 | 9 | 11.0 | 21.0 | 0.00 | 0.00 | 0.00 | 74 | 1011.1 |
| 20260509193050 | 51 | 308 | 16.0 | 23.0 | 0.00 | 0.00 | 0.00 | 76 | 1011.0 |
| 20260509191552 | 50 | 305 | 13.0 | 23.0 | 0.00 | 0.00 | 0.00 | 81 | 1010.8 |
| 20260509190047 | 52 | 309 | 17.0 | 26.0 | 0.00 | 0.00 | 0.00 | 71 | 1010.9 |
| 20260509184541 | 53 | 281 | 15.0 | 22.0 | 0.00 | 0.00 | 0.00 | 73 | 1010.5 |
| 20260509183041 | 52 | 331 | 16.0 | 23.0 | 0.00 | 0.00 | 0.00 | 74 | 1010.3 |
| 20260509181510 | 53 | 322 | 13.0 | 24.0 | 0.00 | 0.00 | 0.00 | 74 | 1010.3 |
| 20260509180008 | 53 | 319 | 16.0 | 29.0 | 0.00 | 0.00 | 0.00 | 70 | 1010.3 |
| 20260509174505 | 53 | 310 | 11.0 | 18.0 | 0.00 | 0.00 | 0.00 | 68 | 1010.1 |
| 20260509173003 | 54 | 314 | 13.0 | 23.0 | 0.00 | 0.00 | 0.00 | 57 | 1010.1 |
| 20260509171505 | 55 | 331 | 10.0 | 18.0 | 0.00 | 0.00 | 0.00 | 56 | 1010.0 |
| 20260509170101 | 55 | 335 | 10.0 | 20.0 | 0.00 | 0.00 | 0.00 | 53 | 1009.8 |
| 20260509164557 | 55 | 307 | 14.0 | 22.0 | 0.00 | 0.00 | 0.00 | 52 | 1009.6 |
| 20260509163104 | 56 | 332 | 9.0 | 16.0 | 0.00 | 0.00 | 0.00 | 50 | 1009.1 |
| 20260509161553 | 56 | 303 | 12.0 | 20.0 | 0.00 | 0.00 | 0.00 | 55 | 1009.0 |
| 20260509160058 | 54 | 326 | 10.0 | 15.0 | 0.00 | 0.00 | 0.00 | 61 | 1008.8 |
| 20260509154600 | 53 | 336 | 10.0 | 19.0 | 0.00 | 0.00 | 0.00 | 66 | 1008.7 |